Starlink 30066

operational
NORAD ID: 56704 Int'l Des: 2023-067 Owner: SPXS Country: US Constellation: starlink
LEOCIRCULAR

关于 Starlink 30066

正在加载描述...

实时位置

正在加载3D地球...

即将过境

高度历史

Altitude vs Time

uPlot chart will show altitude changes over time

两行轨道根数

1 56704U 23067S 25350.72877621 .00001482 00000-0 12477-3 0 9994
2 56704 43.0039 4.9682 0001248 279.6518 80.4183 15.02539331143188
Epoch: Dec 16, 2025 • Age: 16 hours

当前状态

高度 563.0 km
速度 7.59 km/s
星下点 42.98°N, 148.71°W
发射日期 May 19, 2023
运行时间 2.5 years
类型 internet

技术详情

分类 Payload
质量 730.00 kg
干质量 700.00 kg
总质量 730.00 kg
长度 0.30 m
直径 4.10 m
跨度 29.00 m
形状 Box + pan
制造商 SPXS
平台类型 Starlink V2M
阶段状态 In Orbit
所有者/国家 SPXS/US

大型星座

Loading constellations...